Location: Osteria dell� Osa
(41.8833°N, 12.7000°E)
Time: 07:28:16
(UTC+00:00)

Daily predictions for brighter satellites

Satellite Brightness Start Highest point End
(mag) Time Altitude Azimuth Time Altitude Azimuth Time Altitude Azimuth
H-2A R/B 2.9 16:30:52 10° N 16:34:56 53° WNW 16:38:54 10° SSW
Lacrosse 5 4.0 16:35:40 10° NW 16:38:48 16° NNW 16:41:57 10° NNE
Envisat 3.8 16:36:25 10° S 16:41:25 58° W 16:46:27 10° NNW
Timation 2 Rocket 4.3 16:35:05 10° NNW 16:41:35 54° ENE 16:48:15 10° SE
Cosmos 292 Rocket 3.8 16:36:56 10° S 16:41:39 66° ESE 16:46:27 10° NNE
Aureole 3 3.8 16:39:42 10° SSE 16:42:22 24° E 16:44:51 10° NE
Cosmos 1825 Rocket 3.5 16:37:57 10° N 16:42:24 70° E 16:46:47 10° SSE
Okean O Rocket 1.7 16:39:12 10° SSE 16:43:34 82° WSW 16:47:56 10° NNW
ADEOS Rocket 3.9 16:38:48 10° N 16:45:09 61° WNW 16:52:11 10° SSW
YAOGAN 1 4.0 16:42:54 10° ESE 16:45:42 17° ENE 16:48:30 10° NNE
USA 281 3.3 16:39:42 10° SSE 16:46:15 86° WSW 16:52:52 10° NNW
Meteor 2-21 Rocket 4.5 16:41:12 10° N 16:47:21 66° E 16:53:24 10° SSE
FALCON 9 DEB 3.2 16:44:23 10° WSW 16:47:35 66° NW 16:50:48 10° NE
Feng Yun 1-1 Rocket 4.5 16:46:03 10° SSE 16:51:48 58° ENE 16:57:37 10° N
FALCON 9 DEB 3.5 16:48:42 10° WSW 16:51:52 56° NNW 16:55:00 10° NE
CZ-2C R/B 4.2 16:47:14 10° ESE 16:51:53 26° ENE 16:56:27 10° N
SMAP 3.6 16:47:49 10° S 16:52:25 66° WSW 16:57:04 10° NNW
Cosmos 1455 3.9 16:52:45 10° ESE 16:54:39 14° E 16:56:09 11° ENE
Cosmos 1726 Rocket 3.5 16:51:15 10° S 16:55:35 75° E 16:59:57 10° NNE
Cosmos 2219 3.6 16:51:17 10° NNW 16:56:48 44° ENE 17:02:16 10° SE
Cosmos 1553 Rocket 4.4 16:52:31 10° SSE 16:58:25 42° E 17:04:16 10° NNE
Cosmos 1758 Rocket 4.4 16:56:50 10° NNW 17:01:07 54° W 17:05:20 10° S
Meteor 2-10 Rocket 4.4 16:56:58 10° SSE 17:01:27 28° E 17:05:49 10° NNE
USA 307 4.5 16:58:49 10° NNW 17:02:09 21° NNE 17:04:41 13° ENE
Cosmos 2228 3.4 16:58:28 10° SSW 17:02:41 65° W 17:06:56 10° N
Cosmos 1939 Rocket 3.0 16:59:35 10° SSE 17:03:26 50° ENE 17:07:14 10° N
FALCON 9 DEB 3.8 17:00:43 10° WSW 17:03:52 47° NNW 17:06:44 12° NE
CZ-4B R/B 2.2 17:03:45 10° N 17:06:53 50° WNW 17:09:55 10° SSW
USA 308 4.4 17:03:39 10° NW 17:07:02 22° NNE 17:09:20 15° ENE
Helios 1A Rocket 3.3 17:06:45 10° SE 17:10:37 41° ENE 17:14:30 10° N
Cosmos 1606 Rocket 4.3 17:06:57 10° SSW 17:11:13 56° W 17:15:34 10° N
ARGOS 4.3 17:13:09 16° E 17:15:28 21° ENE 17:19:26 10° NNE
FALCON 9 DEB 4.2 17:12:34 10° W 17:15:34 35° NNW 17:17:56 14° NNE
Cosmos 2369 4.5 17:12:00 10° SSE 17:16:53 30° ESE 17:21:09 13° NE
Okean-O 2.9 17:12:51 10° SE 17:17:04 44° ENE 17:21:17 10° N
OAO 2 Rocket 4.4 17:14:11 10° SW 17:18:34 31° SSE 17:21:36 17° ESE
Cosmos 1656 3.6 17:14:48 10° SSW 17:20:19 71° ESE 17:25:56 10° NNE
SKYMED 2 3.5 17:16:47 10° NNE 17:21:10 86° ESE 17:25:30 10° SSW
Cosmos 1689 Rocket 1.9 17:19:26 10° NNE 17:22:19 87° WNW 17:25:12 10° SSW
Cosmos 1400 Rocket 2.9 17:18:51 10° S 17:22:57 85° W 17:27:04 10° N
SL-08 R/B 4.4 17:17:22 10° N 17:23:29 62° E 17:29:31 10° SSE
H-2A R/B 2.8 17:20:06 10° SE 17:24:53 33° ENE 17:29:42 10° N
Cosmos 1745 Rocket 4.2 17:20:38 10° N 17:26:42 47° ENE 17:32:46 10° SSE
GEOS 3 Rocket 4.5 17:24:33 21° E 17:27:05 32° NE 17:31:49 10° NNW
CZ-4 R/B 1.4 17:23:39 10° SSE 17:27:24 50° ENE 17:31:10 10° N
PSLV R/B 3.9 17:25:14 10° NNE 17:29:26 87° ESE 17:33:34 10° SSW
Cosmos 220 Rocket 4.2 17:26:36 10° S 17:30:46 48° ESE 17:34:08 15° NE
Cosmos 2227 Rocket 2.2 17:25:11 10° NNW 17:30:48 63° ENE 17:36:24 10° SE
Geosat 4.3 17:26:30 12° NE 17:30:58 44° ESE 17:35:44 10° S
Cosmos 2058 3.2 17:27:25 10° N 17:31:18 40° ENE 17:35:10 10° SSE
Atlas Centaur 2 4.1 17:25:01 10° SW 17:32:17 34° S 17:37:32 18° ESE
Cosmos 1892 2.7 17:28:48 10° N 17:32:39 60° E 17:36:29 10° SSE
CSL-04 Rocket 4.1 17:28:03 10° SE 17:33:10 39° ENE 17:38:16 10° N
Cosmos 2263 Rocket 4.0 17:33:13 10° NNE 17:35:34 13° NE 17:35:34 13° NE
Cosmos 1408 2.9 17:33:20 10° N 17:36:50 41° ENE 17:37:15 39° E
Meteor 2-1 Rocket 4.2 17:34:20 10° S 17:39:42 55° E 17:45:05 10° NNE
CZ-4C R/B 4.5 17:38:14 10° NNW 17:42:14 16° NNE 17:44:25 14° NE
Cosmos 2058 Rocket 4.0 17:40:16 10° SSW 17:44:37 51° WNW 17:49:01 10° N
Cosmos 1697 Rocket 2.6 17:39:24 10° S 17:44:53 60° ESE 17:49:37 14° NNE
CZ-2D R/B 3.6 17:42:35 10° S 17:46:22 66° W 17:50:10 10° NNW
SeaSat 1 3.3 17:46:27 29° NE 17:46:33 29° NE 17:50:46 10° N
SL-4 R/B 3.5 17:46:07 10° NW 17:48:55 20° NNE 17:49:04 20° NNE
NOSS 3-3 (A) 3.8 17:44:10 10° SSW 17:49:49 71° ESE 17:54:18 20° NE
NOSS 3-3 (C) 3.8 17:44:15 10° SSW 17:49:57 71° ESE 17:54:24 20° NE
Cosmos 1346 Rocket 2.6 17:47:35 10° N 17:51:36 72° E 17:54:07 22° SSE
USA 305 3.7 17:49:20 10° NW 17:53:17 35° NNE 17:53:27 34° NNE
CRYOSAT 2 4.3 17:48:44 10° NNE 17:53:35 63° E 17:58:23 10° S
Cosmos 1825 3.9 17:50:13 10° N 17:51:38 20° NNE 17:51:38 20° NNE
Cosmos 1315 Rocket 2.6 17:50:12 10° S 17:54:07 72° E 17:56:19 25° NNE
USA 215 4.4 17:51:39 22° NE 17:54:11 28° NNE 17:59:34 10° NW
SJ-11-01 4.2 17:53:42 27° SE 17:56:06 60° ENE 18:00:42 10° N
Cosmos 1709 Rocket 4.2 17:50:22 10° N 17:56:29 46° ENE 17:59:42 26° SE
USA 306 3.6 17:55:42 10° NW 17:59:35 37° NNE 17:59:35 37° NNE
BREEZE-M R/B 4.4 17:58:50 10° NW 18:03:07 46° NNE 18:05:18 35° ENE
ATLAS 2AS CENTAUR R/B 3.8 17:57:51 10° NNW 18:04:12 28° NE 18:05:17 27° NE
Cosmos 968 Rocket 3.6 18:00:55 10° NNW 18:06:08 74° WSW 18:11:15 10° S
Cosmos 1980 Rocket 2.3 18:02:12 10° S 18:07:19 48° ESE 18:07:19 48° ESE
Cosmos 883 Rocket 4.3 18:03:18 10° S 18:09:23 66° E 18:15:28 10° NNE
MOS 1 Rocket 3.2 18:05:21 10° NNE 18:10:05 88° E 18:15:06 10° SSW
Cosmos 2297 Rocket 3.0 18:05:07 10° NNW 18:10:36 52° WSW 18:16:03 10° S
Cosmos 1076 Rocket 3.3 18:07:20 10° N 18:11:35 85° ENE 18:11:35 85° ENE
Cosmos 2315 Rocket 3.9 18:07:23 10° S 18:13:26 58° E 18:19:29 10° NNE
CSL-04 Debris 4.1 18:08:05 10° SSE 18:13:31 89° SW 18:19:02 10° NNW
S3M 4.1 18:07:53 10° SSW 18:13:59 72° W 18:20:09 10° N
YAOGAN 1 3.6 18:17:17 10° S 18:21:26 45° W 18:25:36 10° NNW
Lacrosse 5 3.9 18:20:31 10° NNW 18:23:30 16° N 18:23:30 16° N
Cosmos 2360 4.1 18:18:02 10° SSW 18:23:46 87° WNW 18:26:14 36° NNE
Cosmos 1812 Rocket 4.0 18:24:39 10° SSW 18:29:00 60° W 18:30:36 36° NNW
Cosmos 1455 3.6 18:26:22 10° SSW 18:29:52 37° WNW 18:31:13 27° NW
Milstar 3 4.0 18:24:58 10° WSW 18:30:29 27° S 18:31:53 25° SSE
CZ-2C R/B 4.2 18:25:49 10° S 18:31:26 49° W 18:36:55 10° NNW
Cosmos 1503 Rocket 4.2 18:31:15 10° NNW 18:36:26 68° WSW 18:37:12 59° SSW
Cosmos 44 Rocket 3.7 18:31:42 10° SW 18:35:27 55° SW 18:35:27 55° SW
Cosmos 2278 3.6 18:31:19 10° SSW 18:36:45 82° S 18:36:45 82° S
USA 307 4.5 18:38:32 10° NW 18:40:52 31° NW 18:40:52 31° NW
Cosmos 1354 Rocket 4.4 18:42:48 10° NNW 18:47:53 61° W 18:47:53 61° W
Cosmos 2082 4.2 18:44:07 10° NNW 18:49:42 55° WSW 18:50:45 48° SSW
ARGOS 3.7 18:54:41 52° SW 18:55:17 55° W 19:00:38 10° NNW
H-2A R/B 3.6 18:59:21 10° SSW 19:04:12 34° W 19:09:08 10° NNW
GEOS 3 Rocket 4.4 19:05:41 49° W 19:05:41 49° W 19:10:09 10° NW
Cosmos 2263 Rocket 4.0 19:15:12 10° NNW 19:17:16 23° NNW 19:17:16 23° NNW
Atlas Centaur 2 4.0 19:13:44 10° WSW 19:20:08 35° SSW 19:20:08 35° SSW
SeaSat 1 4.4 19:26:16 25° WNW 19:26:16 25° WNW 19:28:33 10° NW
CZ-4C R/B 4.1 19:25:49 10° NNW 19:29:35 31° N 19:29:35 31° N
NOSS 3-4 (A) 4.5 19:26:45 10° NW 19:31:38 50° NW 19:31:38 50° NW
NOSS 3-4 (C) 4.5 19:26:51 10° NW 19:31:43 49° NW 19:31:43 49° NW
USA 215 4.4 19:39:01 37° NNW 19:39:01 37° NNW 19:42:50 10° NW
Cosmos 1980 Rocket 4.4 19:47:07 10° WSW 19:49:11 19° W 19:49:11 19° W
ATLAS 2AS CENTAUR R/B 4.0 19:48:38 10° NW 19:52:43 36° NW 19:52:43 36° NW
